SIREN (RS30S SXC3-217)

Last updated on Wed Sep 13 2023 00:03:03 GMT+0000 (Coordinated Universal Time)

1 53384U 22096Q 23255.56761266 .00030822 00000+0 78491-3 0 9994 2 53384 97.4050 162.2912 0006195 98.8971 261.2976 15.39495163 61091

Satellite not in orbit

SIREN (RS30S SXC3-217)